カタログに戻る

STARLINK-37302

運用中通信SSO
NORAD 68669·PAYLOAD·🇺🇸 United States

打ち上げ Apr 11, 2026 から Vandenberg Space Force Base

Loading…

次のパス (今後24時間)

TLE

最新Source: CelesTrak SupGP

元期: Sep 15, 2026, 03:59 UTC

1 68669C 26077H   26258.16645833 -.00001710  00000+0 -53083-4 0  2587
2 68669  97.2848 128.1109 0001933  95.3601 274.4616 15.33445560    14

AllMySatでSTARLINK-37302をリアルタイム追跡

Download on the App Store